<?xml version="1.0" encoding="UTF-8" standalone="yes"?>
<gpx version="1.1" creator="MagicMaps Tour Explorer"
     xmlns:xsi="http://www.w3.org/2001/XMLSchema-instance"
     xmlns="http://www.topografix.com/GPX/1/1">
  <trk>
    <name>seekofel_nord_s</name>
    <trkseg>
      <trkpt lat="46.699638000" lon="12.085304000">
        <ele>1519.5</ele>
        <time>1970-01-01T01:00:00</time>
      </trkpt>
      <trkpt lat="46.699151000" lon="12.085277000">
        <ele>1517.6</ele>
        <time>1970-01-01T01:00:00</time>
      </trkpt>
      <trkpt lat="46.698813000" lon="12.085229000">
        <ele>1518.5</ele>
        <time>1970-01-01T01:00:00</time>
      </trkpt>
      <trkpt lat="46.698692000" lon="12.084768000">
        <ele>1519.5</ele>
        <time>1970-01-01T01:00:00</time>
      </trkpt>
      <trkpt lat="46.698688000" lon="12.084681000">
        <ele>1513.3</ele>
        <time>1970-01-01T01:00:00</time>
      </trkpt>
      <trkpt lat="46.698716000" lon="12.084725000">
        <ele>1512.3</ele>
        <time>1970-01-01T01:00:00</time>
      </trkpt>
      <trkpt lat="46.698688000" lon="12.084680000">
        <ele>1516.6</ele>
        <time>1970-01-01T01:00:00</time>
      </trkpt>
      <trkpt lat="46.698576000" lon="12.084780000">
        <ele>1514.2</ele>
        <time>1970-01-01T01:00:00</time>
      </trkpt>
      <trkpt lat="46.698428000" lon="12.084717000">
        <ele>1504.1</ele>
        <time>1970-01-01T01:00:00</time>
      </trkpt>
      <trkpt lat="46.698372000" lon="12.084355000">
        <ele>1495.9</ele>
        <time>1970-01-01T01:00:00</time>
      </trkpt>
      <trkpt lat="46.698179000" lon="12.084334000">
        <ele>1495.9</ele>
        <time>1970-01-01T01:00:00</time>
      </trkpt>
      <trkpt lat="46.697768000" lon="12.084101000">
        <ele>1494.5</ele>
        <time>1970-01-01T01:00:00</time>
      </trkpt>
      <trkpt lat="46.697676000" lon="12.084183000">
        <ele>1495.0</ele>
        <time>1970-01-01T01:00:00</time>
      </trkpt>
      <trkpt lat="46.697900000" lon="12.084150000">
        <ele>1495.9</ele>
        <time>1970-01-01T01:00:00</time>
      </trkpt>
      <trkpt lat="46.697823000" lon="12.084097000">
        <ele>1495.0</ele>
        <time>1970-01-01T01:00:00</time>
      </trkpt>
      <trkpt lat="46.697146000" lon="12.084225000">
        <ele>1495.9</ele>
        <time>1970-01-01T01:00:00</time>
      </trkpt>
      <trkpt lat="46.696845000" lon="12.083849000">
        <ele>1497.4</ele>
        <time>1970-01-01T01:00:00</time>
      </trkpt>
      <trkpt lat="46.696743000" lon="12.083329000">
        <ele>1499.8</ele>
        <time>1970-01-01T01:00:00</time>
      </trkpt>
      <trkpt lat="46.696082000" lon="12.083230000">
        <ele>1505.1</ele>
        <time>1970-01-01T01:00:00</time>
      </trkpt>
      <trkpt lat="46.695365000" lon="12.083311000">
        <ele>1501.2</ele>
        <time>1970-01-01T01:00:00</time>
      </trkpt>
      <trkpt lat="46.694752000" lon="12.083481000">
        <ele>1504.1</ele>
        <time>1970-01-01T01:00:00</time>
      </trkpt>
      <trkpt lat="46.694469000" lon="12.083356000">
        <ele>1508.4</ele>
        <time>1970-01-01T01:00:00</time>
      </trkpt>
      <trkpt lat="46.693979000" lon="12.083023000">
        <ele>1510.4</ele>
        <time>1970-01-01T01:00:00</time>
      </trkpt>
      <trkpt lat="46.693180000" lon="12.082234000">
        <ele>1518.5</ele>
        <time>1970-01-01T01:00:00</time>
      </trkpt>
      <trkpt lat="46.692318000" lon="12.081666000">
        <ele>1508.4</ele>
        <time>1970-01-01T01:00:00</time>
      </trkpt>
      <trkpt lat="46.692291000" lon="12.081705000">
        <ele>1508.0</ele>
        <time>1970-01-01T01:00:00</time>
      </trkpt>
      <trkpt lat="46.691640000" lon="12.081012000">
        <ele>1505.1</ele>
        <time>1970-01-01T01:00:00</time>
      </trkpt>
      <trkpt lat="46.691315000" lon="12.080401000">
        <ele>1501.2</ele>
        <time>1970-01-01T01:00:00</time>
      </trkpt>
      <trkpt lat="46.691131000" lon="12.080382000">
        <ele>1501.2</ele>
        <time>1970-01-01T01:00:00</time>
      </trkpt>
      <trkpt lat="46.690957000" lon="12.080590000">
        <ele>1502.2</ele>
        <time>1970-01-01T01:00:00</time>
      </trkpt>
      <trkpt lat="46.690897000" lon="12.080877000">
        <ele>1501.7</ele>
        <time>1970-01-01T01:00:00</time>
      </trkpt>
      <trkpt lat="46.690787000" lon="12.080960000">
        <ele>1502.2</ele>
        <time>1970-01-01T01:00:00</time>
      </trkpt>
      <trkpt lat="46.690183000" lon="12.081199000">
        <ele>1502.7</ele>
        <time>1970-01-01T01:00:00</time>
      </trkpt>
      <trkpt lat="46.689533000" lon="12.081256000">
        <ele>1501.7</ele>
        <time>1970-01-01T01:00:00</time>
      </trkpt>
      <trkpt lat="46.689197000" lon="12.081576000">
        <ele>1503.6</ele>
        <time>1970-01-01T01:00:00</time>
      </trkpt>
      <trkpt lat="46.689119000" lon="12.081865000">
        <ele>1506.0</ele>
        <time>1970-01-01T01:00:00</time>
      </trkpt>
      <trkpt lat="46.689151000" lon="12.083096000">
        <ele>1505.6</ele>
        <time>1970-01-01T01:00:00</time>
      </trkpt>
      <trkpt lat="46.689083000" lon="12.083784000">
        <ele>1510.8</ele>
        <time>1970-01-01T01:00:00</time>
      </trkpt>
      <trkpt lat="46.689077000" lon="12.084574000">
        <ele>1508.0</ele>
        <time>1970-01-01T01:00:00</time>
      </trkpt>
      <trkpt lat="46.688998000" lon="12.084663000">
        <ele>1510.4</ele>
        <time>1970-01-01T01:00:00</time>
      </trkpt>
      <trkpt lat="46.688705000" lon="12.084831000">
        <ele>1518.5</ele>
        <time>1970-01-01T01:00:00</time>
      </trkpt>
      <trkpt lat="46.688313000" lon="12.084892000">
        <ele>1526.2</ele>
        <time>1970-01-01T01:00:00</time>
      </trkpt>
      <trkpt lat="46.688012000" lon="12.085298000">
        <ele>1533.4</ele>
        <time>1970-01-01T01:00:00</time>
      </trkpt>
      <trkpt lat="46.687596000" lon="12.085400000">
        <ele>1543.1</ele>
        <time>1970-01-01T01:00:00</time>
      </trkpt>
      <trkpt lat="46.687359000" lon="12.085618000">
        <ele>1549.8</ele>
        <time>1970-01-01T01:00:00</time>
      </trkpt>
      <trkpt lat="46.686418000" lon="12.086065000">
        <ele>1570.5</ele>
        <time>1970-01-01T01:00:00</time>
      </trkpt>
      <trkpt lat="46.686187000" lon="12.086293000">
        <ele>1573.8</ele>
        <time>1970-01-01T01:00:00</time>
      </trkpt>
      <trkpt lat="46.685814000" lon="12.086437000">
        <ele>1579.6</ele>
        <time>1970-01-01T01:00:00</time>
      </trkpt>
      <trkpt lat="46.685176000" lon="12.086913000">
        <ele>1593.0</ele>
        <time>1970-01-01T01:00:00</time>
      </trkpt>
      <trkpt lat="46.685144000" lon="12.086994000">
        <ele>1594.5</ele>
        <time>1970-01-01T01:00:00</time>
      </trkpt>
      <trkpt lat="46.685232000" lon="12.087080000">
        <ele>1597.4</ele>
        <time>1970-01-01T01:00:00</time>
      </trkpt>
      <trkpt lat="46.685573000" lon="12.087261000">
        <ele>1600.7</ele>
        <time>1970-01-01T01:00:00</time>
      </trkpt>
      <trkpt lat="46.685265000" lon="12.087546000">
        <ele>1609.4</ele>
        <time>1970-01-01T01:00:00</time>
      </trkpt>
      <trkpt lat="46.684970000" lon="12.088062000">
        <ele>1618.0</ele>
        <time>1970-01-01T01:00:00</time>
      </trkpt>
      <trkpt lat="46.684617000" lon="12.088462000">
        <ele>1628.1</ele>
        <time>1970-01-01T01:00:00</time>
      </trkpt>
      <trkpt lat="46.684266000" lon="12.088618000">
        <ele>1638.2</ele>
        <time>1970-01-01T01:00:00</time>
      </trkpt>
      <trkpt lat="46.684125000" lon="12.088884000">
        <ele>1643.5</ele>
        <time>1970-01-01T01:00:00</time>
      </trkpt>
      <trkpt lat="46.683996000" lon="12.088815000">
        <ele>1648.3</ele>
        <time>1970-01-01T01:00:00</time>
      </trkpt>
      <trkpt lat="46.683549000" lon="12.089181000">
        <ele>1659.9</ele>
        <time>1970-01-01T01:00:00</time>
      </trkpt>
      <trkpt lat="46.683210000" lon="12.089351000">
        <ele>1667.1</ele>
        <time>1970-01-01T01:00:00</time>
      </trkpt>
      <trkpt lat="46.683136000" lon="12.089515000">
        <ele>1672.8</ele>
        <time>1970-01-01T01:00:00</time>
      </trkpt>
      <trkpt lat="46.682975000" lon="12.089541000">
        <ele>1675.7</ele>
        <time>1970-01-01T01:00:00</time>
      </trkpt>
      <trkpt lat="46.682746000" lon="12.089792000">
        <ele>1681.0</ele>
        <time>1970-01-01T01:00:00</time>
      </trkpt>
      <trkpt lat="46.682906000" lon="12.090079000">
        <ele>1688.2</ele>
        <time>1970-01-01T01:00:00</time>
      </trkpt>
      <trkpt lat="46.682873000" lon="12.090190000">
        <ele>1689.7</ele>
        <time>1970-01-01T01:00:00</time>
      </trkpt>
      <trkpt lat="46.682526000" lon="12.090665000">
        <ele>1700.7</ele>
        <time>1970-01-01T01:00:00</time>
      </trkpt>
      <trkpt lat="46.681978000" lon="12.091059000">
        <ele>1717.5</ele>
        <time>1970-01-01T01:00:00</time>
      </trkpt>
      <trkpt lat="46.681829000" lon="12.091033000">
        <ele>1722.8</ele>
        <time>1970-01-01T01:00:00</time>
      </trkpt>
      <trkpt lat="46.681535000" lon="12.091425000">
        <ele>1732.4</ele>
        <time>1970-01-01T01:00:00</time>
      </trkpt>
      <trkpt lat="46.680886000" lon="12.091821000">
        <ele>1745.4</ele>
        <time>1970-01-01T01:00:00</time>
      </trkpt>
      <trkpt lat="46.680688000" lon="12.091767000">
        <ele>1750.7</ele>
        <time>1970-01-01T01:00:00</time>
      </trkpt>
      <trkpt lat="46.680710000" lon="12.091831000">
        <ele>1749.7</ele>
        <time>1970-01-01T01:00:00</time>
      </trkpt>
      <trkpt lat="46.680340000" lon="12.091903000">
        <ele>1760.8</ele>
        <time>1970-01-01T01:00:00</time>
      </trkpt>
      <trkpt lat="46.680167000" lon="12.092103000">
        <ele>1767.5</ele>
        <time>1970-01-01T01:00:00</time>
      </trkpt>
      <trkpt lat="46.679998435" lon="12.092101022">
        <ele>1762.4</ele>
        <time>1970-01-01T01:00:00</time>
      </trkpt>
      <trkpt lat="46.679848299" lon="12.092327829">
        <ele>1769.1</ele>
        <time>1970-01-01T01:00:00</time>
      </trkpt>
      <trkpt lat="46.679691296" lon="12.092475783">
        <ele>1777.8</ele>
        <time>1970-01-01T01:00:00</time>
      </trkpt>
      <trkpt lat="46.679597000" lon="12.092286000">
        <ele>1792.5</ele>
        <time>1970-01-01T01:00:00</time>
      </trkpt>
      <trkpt lat="46.679584000" lon="12.092387000">
        <ele>1794.9</ele>
        <time>1970-01-01T01:00:00</time>
      </trkpt>
      <trkpt lat="46.679520000" lon="12.092331000">
        <ele>1796.8</ele>
        <time>1970-01-01T01:00:00</time>
      </trkpt>
      <trkpt lat="46.679420000" lon="12.092411000">
        <ele>1801.6</ele>
        <time>1970-01-01T01:00:00</time>
      </trkpt>
      <trkpt lat="46.679207000" lon="12.092319000">
        <ele>1807.9</ele>
        <time>1970-01-01T01:00:00</time>
      </trkpt>
      <trkpt lat="46.678927000" lon="12.092362000">
        <ele>1815.6</ele>
        <time>1970-01-01T01:00:00</time>
      </trkpt>
      <trkpt lat="46.678747000" lon="12.092505000">
        <ele>1821.8</ele>
        <time>1970-01-01T01:00:00</time>
      </trkpt>
      <trkpt lat="46.678162000" lon="12.092716000">
        <ele>1839.1</ele>
        <time>1970-01-01T01:00:00</time>
      </trkpt>
      <trkpt lat="46.678144000" lon="12.092774000">
        <ele>1842.0</ele>
        <time>1970-01-01T01:00:00</time>
      </trkpt>
      <trkpt lat="46.678495000" lon="12.093319000">
        <ele>1856.9</ele>
        <time>1970-01-01T01:00:00</time>
      </trkpt>
      <trkpt lat="46.678093000" lon="12.093497000">
        <ele>1868.9</ele>
        <time>1970-01-01T01:00:00</time>
      </trkpt>
      <trkpt lat="46.678252000" lon="12.093712000">
        <ele>1875.7</ele>
        <time>1970-01-01T01:00:00</time>
      </trkpt>
      <trkpt lat="46.678078000" lon="12.093899000">
        <ele>1884.3</ele>
        <time>1970-01-01T01:00:00</time>
      </trkpt>
      <trkpt lat="46.678321000" lon="12.094126000">
        <ele>1893.5</ele>
        <time>1970-01-01T01:00:00</time>
      </trkpt>
      <trkpt lat="46.678116000" lon="12.094184000">
        <ele>1899.2</ele>
        <time>1970-01-01T01:00:00</time>
      </trkpt>
      <trkpt lat="46.678075000" lon="12.094264000">
        <ele>1902.1</ele>
        <time>1970-01-01T01:00:00</time>
      </trkpt>
      <trkpt lat="46.678391000" lon="12.094590000">
        <ele>1916.0</ele>
        <time>1970-01-01T01:00:00</time>
      </trkpt>
      <trkpt lat="46.678133000" lon="12.094683000">
        <ele>1923.3</ele>
        <time>1970-01-01T01:00:00</time>
      </trkpt>
      <trkpt lat="46.677931000" lon="12.094922000">
        <ele>1930.5</ele>
        <time>1970-01-01T01:00:00</time>
      </trkpt>
      <trkpt lat="46.677491000" lon="12.094732000">
        <ele>1938.2</ele>
        <time>1970-01-01T01:00:00</time>
      </trkpt>
      <trkpt lat="46.677469610" lon="12.094754912">
        <ele>1934.3</ele>
        <time>1970-01-01T01:00:00</time>
      </trkpt>
      <trkpt lat="46.677447000" lon="12.094725000">
        <ele>1939.1</ele>
        <time>1970-01-01T01:00:00</time>
      </trkpt>
      <trkpt lat="46.677354000" lon="12.094659000">
        <ele>1943.0</ele>
        <time>1970-01-01T01:00:00</time>
      </trkpt>
      <trkpt lat="46.677402000" lon="12.094756000">
        <ele>1944.4</ele>
        <time>1970-01-01T01:00:00</time>
      </trkpt>
      <trkpt lat="46.677281000" lon="12.094335000">
        <ele>1950.2</ele>
        <time>1970-01-01T01:00:00</time>
      </trkpt>
      <trkpt lat="46.677323000" lon="12.094262000">
        <ele>1950.7</ele>
        <time>1970-01-01T01:00:00</time>
      </trkpt>
      <trkpt lat="46.677256000" lon="12.094286000">
        <ele>1955.0</ele>
        <time>1970-01-01T01:00:00</time>
      </trkpt>
      <trkpt lat="46.677251000" lon="12.094061000">
        <ele>1960.7</ele>
        <time>1970-01-01T01:00:00</time>
      </trkpt>
      <trkpt lat="46.677119000" lon="12.093820000">
        <ele>1966.0</ele>
        <time>1970-01-01T01:00:00</time>
      </trkpt>
      <trkpt lat="46.676759000" lon="12.093906000">
        <ele>1978.5</ele>
        <time>1970-01-01T01:00:00</time>
      </trkpt>
      <trkpt lat="46.676304000" lon="12.093788000">
        <ele>1961.2</ele>
        <time>1970-01-01T01:00:00</time>
      </trkpt>
      <trkpt lat="46.676019000" lon="12.093836000">
        <ele>1963.6</ele>
        <time>1970-01-01T01:00:00</time>
      </trkpt>
      <trkpt lat="46.675809000" lon="12.093783000">
        <ele>1964.6</ele>
        <time>1970-01-01T01:00:00</time>
      </trkpt>
      <trkpt lat="46.675884000" lon="12.093878000">
        <ele>1965.6</ele>
        <time>1970-01-01T01:00:00</time>
      </trkpt>
      <trkpt lat="46.675789000" lon="12.093804000">
        <ele>1970.4</ele>
        <time>1970-01-01T01:00:00</time>
      </trkpt>
      <trkpt lat="46.675716000" lon="12.093496000">
        <ele>1981.9</ele>
        <time>1970-01-01T01:00:00</time>
      </trkpt>
      <trkpt lat="46.676039000" lon="12.092719000">
        <ele>2005.4</ele>
        <time>1970-01-01T01:00:00</time>
      </trkpt>
      <trkpt lat="46.676041000" lon="12.092443000">
        <ele>2007.9</ele>
        <time>1970-01-01T01:00:00</time>
      </trkpt>
      <trkpt lat="46.676126000" lon="12.092212000">
        <ele>2013.6</ele>
        <time>1970-01-01T01:00:00</time>
      </trkpt>
      <trkpt lat="46.676053000" lon="12.091920000">
        <ele>2017.0</ele>
        <time>1970-01-01T01:00:00</time>
      </trkpt>
      <trkpt lat="46.675880000" lon="12.092096000">
        <ele>2027.1</ele>
        <time>1970-01-01T01:00:00</time>
      </trkpt>
      <trkpt lat="46.675834000" lon="12.091954000">
        <ele>2032.4</ele>
        <time>1970-01-01T01:00:00</time>
      </trkpt>
      <trkpt lat="46.675689000" lon="12.091974000">
        <ele>2037.7</ele>
        <time>1970-01-01T01:00:00</time>
      </trkpt>
      <trkpt lat="46.675137000" lon="12.092586000">
        <ele>2054.5</ele>
        <time>1970-01-01T01:00:00</time>
      </trkpt>
      <trkpt lat="46.674978000" lon="12.092640000">
        <ele>2059.3</ele>
        <time>1970-01-01T01:00:00</time>
      </trkpt>
      <trkpt lat="46.674978000" lon="12.092218000">
        <ele>2065.0</ele>
        <time>1970-01-01T01:00:00</time>
      </trkpt>
      <trkpt lat="46.674696000" lon="12.092091000">
        <ele>2074.7</ele>
        <time>1970-01-01T01:00:00</time>
      </trkpt>
      <trkpt lat="46.674566000" lon="12.092162000">
        <ele>2080.9</ele>
        <time>1970-01-01T01:00:00</time>
      </trkpt>
      <trkpt lat="46.674299000" lon="12.092161000">
        <ele>2086.7</ele>
        <time>1970-01-01T01:00:00</time>
      </trkpt>
      <trkpt lat="46.673855000" lon="12.092443000">
        <ele>2079.9</ele>
        <time>1970-01-01T01:00:00</time>
      </trkpt>
      <trkpt lat="46.673696000" lon="12.092463000">
        <ele>2081.9</ele>
        <time>1970-01-01T01:00:00</time>
      </trkpt>
      <trkpt lat="46.673423000" lon="12.092406000">
        <ele>2083.8</ele>
        <time>1970-01-01T01:00:00</time>
      </trkpt>
      <trkpt lat="46.673238000" lon="12.092135000">
        <ele>2096.3</ele>
        <time>1970-01-01T01:00:00</time>
      </trkpt>
      <trkpt lat="46.672554000" lon="12.092622000">
        <ele>2124.2</ele>
        <time>1970-01-01T01:00:00</time>
      </trkpt>
      <trkpt lat="46.672517000" lon="12.092569000">
        <ele>2127.1</ele>
        <time>1970-01-01T01:00:00</time>
      </trkpt>
      <trkpt lat="46.672267000" lon="12.092609000">
        <ele>2135.7</ele>
        <time>1970-01-01T01:00:00</time>
      </trkpt>
      <trkpt lat="46.671834000" lon="12.092817000">
        <ele>2145.8</ele>
        <time>1970-01-01T01:00:00</time>
      </trkpt>
      <trkpt lat="46.671654000" lon="12.092835000">
        <ele>2151.1</ele>
        <time>1970-01-01T01:00:00</time>
      </trkpt>
      <trkpt lat="46.671444000" lon="12.093086000">
        <ele>2151.6</ele>
        <time>1970-01-01T01:00:00</time>
      </trkpt>
      <trkpt lat="46.671637000" lon="12.093296000">
        <ele>2151.1</ele>
        <time>1970-01-01T01:00:00</time>
      </trkpt>
      <trkpt lat="46.671526000" lon="12.093510000">
        <ele>2147.7</ele>
        <time>1970-01-01T01:00:00</time>
      </trkpt>
      <trkpt lat="46.671299000" lon="12.093565000">
        <ele>2148.7</ele>
        <time>1970-01-01T01:00:00</time>
      </trkpt>
      <trkpt lat="46.671072000" lon="12.094062000">
        <ele>2160.2</ele>
        <time>1970-01-01T01:00:00</time>
      </trkpt>
      <trkpt lat="46.670670000" lon="12.094310000">
        <ele>2156.9</ele>
        <time>1970-01-01T01:00:00</time>
      </trkpt>
      <trkpt lat="46.670149000" lon="12.094367000">
        <ele>2172.7</ele>
        <time>1970-01-01T01:00:00</time>
      </trkpt>
      <trkpt lat="46.670214000" lon="12.094191000">
        <ele>2177.0</ele>
        <time>1970-01-01T01:00:00</time>
      </trkpt>
      <trkpt lat="46.670159000" lon="12.094230000">
        <ele>2178.0</ele>
        <time>1970-01-01T01:00:00</time>
      </trkpt>
      <trkpt lat="46.670151000" lon="12.094153000">
        <ele>2184.3</ele>
        <time>1970-01-01T01:00:00</time>
      </trkpt>
      <trkpt lat="46.670042000" lon="12.094210000">
        <ele>2188.1</ele>
        <time>1970-01-01T01:00:00</time>
      </trkpt>
      <trkpt lat="46.670032000" lon="12.094047000">
        <ele>2193.9</ele>
        <time>1970-01-01T01:00:00</time>
      </trkpt>
      <trkpt lat="46.669812000" lon="12.094151000">
        <ele>2197.2</ele>
        <time>1970-01-01T01:00:00</time>
      </trkpt>
      <trkpt lat="46.669796000" lon="12.094233000">
        <ele>2198.7</ele>
        <time>1970-01-01T01:00:00</time>
      </trkpt>
      <trkpt lat="46.669569000" lon="12.094177000">
        <ele>2201.1</ele>
        <time>1970-01-01T01:00:00</time>
      </trkpt>
      <trkpt lat="46.669404000" lon="12.093885000">
        <ele>2197.7</ele>
        <time>1970-01-01T01:00:00</time>
      </trkpt>
      <trkpt lat="46.669286000" lon="12.093818000">
        <ele>2192.4</ele>
        <time>1970-01-01T01:00:00</time>
      </trkpt>
      <trkpt lat="46.669188000" lon="12.093270000">
        <ele>2197.7</ele>
        <time>1970-01-01T01:00:00</time>
      </trkpt>
      <trkpt lat="46.669167000" lon="12.092528000">
        <ele>2197.7</ele>
        <time>1970-01-01T01:00:00</time>
      </trkpt>
      <trkpt lat="46.669228000" lon="12.091413000">
        <ele>2206.8</ele>
        <time>1970-01-01T01:00:00</time>
      </trkpt>
      <trkpt lat="46.669277000" lon="12.091004000">
        <ele>2213.6</ele>
        <time>1970-01-01T01:00:00</time>
      </trkpt>
      <trkpt lat="46.669470000" lon="12.090617000">
        <ele>2217.4</ele>
        <time>1970-01-01T01:00:00</time>
      </trkpt>
      <trkpt lat="46.669478000" lon="12.090438000">
        <ele>2218.4</ele>
        <time>1970-01-01T01:00:00</time>
      </trkpt>
      <trkpt lat="46.669521000" lon="12.090366000">
        <ele>2221.7</ele>
        <time>1970-01-01T01:00:00</time>
      </trkpt>
      <trkpt lat="46.669568000" lon="12.090400000">
        <ele>2223.7</ele>
        <time>1970-01-01T01:00:00</time>
      </trkpt>
      <trkpt lat="46.669631000" lon="12.090175000">
        <ele>2227.0</ele>
        <time>1970-01-01T01:00:00</time>
      </trkpt>
      <trkpt lat="46.669779000" lon="12.090044000">
        <ele>2231.4</ele>
        <time>1970-01-01T01:00:00</time>
      </trkpt>
      <trkpt lat="46.669992000" lon="12.089259000">
        <ele>2237.1</ele>
        <time>1970-01-01T01:00:00</time>
      </trkpt>
      <trkpt lat="46.669856000" lon="12.089150000">
        <ele>2235.7</ele>
        <time>1970-01-01T01:00:00</time>
      </trkpt>
      <trkpt lat="46.669811000" lon="12.088980000">
        <ele>2236.2</ele>
        <time>1970-01-01T01:00:00</time>
      </trkpt>
      <trkpt lat="46.669866000" lon="12.088455000">
        <ele>2247.2</ele>
        <time>1970-01-01T01:00:00</time>
      </trkpt>
      <trkpt lat="46.669761000" lon="12.087977000">
        <ele>2257.3</ele>
        <time>1970-01-01T01:00:00</time>
      </trkpt>
      <trkpt lat="46.669821000" lon="12.087723000">
        <ele>2260.2</ele>
        <time>1970-01-01T01:00:00</time>
      </trkpt>
      <trkpt lat="46.669647000" lon="12.087270000">
        <ele>2261.6</ele>
        <time>1970-01-01T01:00:00</time>
      </trkpt>
      <trkpt lat="46.669721000" lon="12.086853000">
        <ele>2269.8</ele>
        <time>1970-01-01T01:00:00</time>
      </trkpt>
      <trkpt lat="46.669680000" lon="12.086763000">
        <ele>2272.7</ele>
        <time>1970-01-01T01:00:00</time>
      </trkpt>
      <trkpt lat="46.669538000" lon="12.086847000">
        <ele>2277.0</ele>
        <time>1970-01-01T01:00:00</time>
      </trkpt>
      <trkpt lat="46.669437000" lon="12.086788000">
        <ele>2278.9</ele>
        <time>1970-01-01T01:00:00</time>
      </trkpt>
      <trkpt lat="46.669344000" lon="12.086501000">
        <ele>2280.4</ele>
        <time>1970-01-01T01:00:00</time>
      </trkpt>
      <trkpt lat="46.669082000" lon="12.086227000">
        <ele>2290.0</ele>
        <time>1970-01-01T01:00:00</time>
      </trkpt>
      <trkpt lat="46.669076000" lon="12.085965000">
        <ele>2291.9</ele>
        <time>1970-01-01T01:00:00</time>
      </trkpt>
      <trkpt lat="46.668853000" lon="12.085638000">
        <ele>2299.6</ele>
        <time>1970-01-01T01:00:00</time>
      </trkpt>
      <trkpt lat="46.668840000" lon="12.085003000">
        <ele>2312.6</ele>
        <time>1970-01-01T01:00:00</time>
      </trkpt>
      <trkpt lat="46.668618000" lon="12.084884000">
        <ele>2320.3</ele>
        <time>1970-01-01T01:00:00</time>
      </trkpt>
      <trkpt lat="46.668435000" lon="12.084142000">
        <ele>2340.0</ele>
        <time>1970-01-01T01:00:00</time>
      </trkpt>
      <trkpt lat="46.668546000" lon="12.083708000">
        <ele>2348.6</ele>
        <time>1970-01-01T01:00:00</time>
      </trkpt>
      <trkpt lat="46.668322000" lon="12.083710000">
        <ele>2357.3</ele>
        <time>1970-01-01T01:00:00</time>
      </trkpt>
      <trkpt lat="46.668208000" lon="12.083315000">
        <ele>2373.2</ele>
        <time>1970-01-01T01:00:00</time>
      </trkpt>
      <trkpt lat="46.667962000" lon="12.083241000">
        <ele>2379.4</ele>
        <time>1970-01-01T01:00:00</time>
      </trkpt>
      <trkpt lat="46.667984000" lon="12.083455000">
        <ele>2384.7</ele>
        <time>1970-01-01T01:00:00</time>
      </trkpt>
      <trkpt lat="46.667937000" lon="12.083451000">
        <ele>2385.6</ele>
        <time>1970-01-01T01:00:00</time>
      </trkpt>
      <trkpt lat="46.667703000" lon="12.083219000">
        <ele>2392.9</ele>
        <time>1970-01-01T01:00:00</time>
      </trkpt>
      <trkpt lat="46.667563000" lon="12.083227000">
        <ele>2394.3</ele>
        <time>1970-01-01T01:00:00</time>
      </trkpt>
      <trkpt lat="46.667511000" lon="12.083165000">
        <ele>2394.8</ele>
        <time>1970-01-01T01:00:00</time>
      </trkpt>
      <trkpt lat="46.667607000" lon="12.083076000">
        <ele>2399.6</ele>
        <time>1970-01-01T01:00:00</time>
      </trkpt>
      <trkpt lat="46.667540000" lon="12.083083000">
        <ele>2396.7</ele>
        <time>1970-01-01T01:00:00</time>
      </trkpt>
      <trkpt lat="46.667441000" lon="12.083221000">
        <ele>2393.8</ele>
        <time>1970-01-01T01:00:00</time>
      </trkpt>
      <trkpt lat="46.667363000" lon="12.083177000">
        <ele>2392.4</ele>
        <time>1970-01-01T01:00:00</time>
      </trkpt>
      <trkpt lat="46.667270000" lon="12.083252000">
        <ele>2387.6</ele>
        <time>1970-01-01T01:00:00</time>
      </trkpt>
      <trkpt lat="46.667226000" lon="12.083127000">
        <ele>2385.6</ele>
        <time>1970-01-01T01:00:00</time>
      </trkpt>
      <trkpt lat="46.667179000" lon="12.083170000">
        <ele>2383.2</ele>
        <time>1970-01-01T01:00:00</time>
      </trkpt>
      <trkpt lat="46.666750000" lon="12.083851000">
        <ele>2362.6</ele>
        <time>1970-01-01T01:00:00</time>
      </trkpt>
      <trkpt lat="46.666173000" lon="12.084493000">
        <ele>2343.8</ele>
        <time>1970-01-01T01:00:00</time>
      </trkpt>
      <trkpt lat="46.665963568" lon="12.084580203">
        <ele>2332.7</ele>
        <time>1970-01-01T01:00:00</time>
      </trkpt>
      <trkpt lat="46.665760000" lon="12.084686000">
        <ele>2336.1</ele>
        <time>1970-01-01T01:00:00</time>
      </trkpt>
      <trkpt lat="46.665649000" lon="12.084701000">
        <ele>2336.6</ele>
        <time>1970-01-01T01:00:00</time>
      </trkpt>
      <trkpt lat="46.665640000" lon="12.084719000">
        <ele>2357.8</ele>
        <time>1970-01-01T01:00:00</time>
      </trkpt>
      <trkpt lat="46.665744000" lon="12.084695000">
        <ele>2322.2</ele>
        <time>1970-01-01T01:00:00</time>
      </trkpt>
      <trkpt lat="46.665765000" lon="12.084702000">
        <ele>2338.1</ele>
        <time>1970-01-01T01:00:00</time>
      </trkpt>
      <trkpt lat="46.666173000" lon="12.084500000">
        <ele>2345.8</ele>
        <time>1970-01-01T01:00:00</time>
      </trkpt>
      <trkpt lat="46.666240000" lon="12.084357000">
        <ele>2349.1</ele>
        <time>1970-01-01T01:00:00</time>
      </trkpt>
      <trkpt lat="46.666813000" lon="12.083760000">
        <ele>2366.4</ele>
        <time>1970-01-01T01:00:00</time>
      </trkpt>
      <trkpt lat="46.667158000" lon="12.083137000">
        <ele>2385.6</ele>
        <time>1970-01-01T01:00:00</time>
      </trkpt>
      <trkpt lat="46.667254000" lon="12.083253000">
        <ele>2389.5</ele>
        <time>1970-01-01T01:00:00</time>
      </trkpt>
      <trkpt lat="46.667410000" lon="12.083238000">
        <ele>2396.2</ele>
        <time>1970-01-01T01:00:00</time>
      </trkpt>
      <trkpt lat="46.667639000" lon="12.082502000">
        <ele>2404.4</ele>
        <time>1970-01-01T01:00:00</time>
      </trkpt>
      <trkpt lat="46.667587000" lon="12.082301000">
        <ele>2409.2</ele>
        <time>1970-01-01T01:00:00</time>
      </trkpt>
      <trkpt lat="46.667720000" lon="12.082307000">
        <ele>2413.0</ele>
        <time>1970-01-01T01:00:00</time>
      </trkpt>
      <trkpt lat="46.667759000" lon="12.082218000">
        <ele>2418.8</ele>
        <time>1970-01-01T01:00:00</time>
      </trkpt>
      <trkpt lat="46.667696000" lon="12.081934000">
        <ele>2428.9</ele>
        <time>1970-01-01T01:00:00</time>
      </trkpt>
      <trkpt lat="46.667722000" lon="12.081997000">
        <ele>2430.8</ele>
        <time>1970-01-01T01:00:00</time>
      </trkpt>
      <trkpt lat="46.667832000" lon="12.081976000">
        <ele>2435.6</ele>
        <time>1970-01-01T01:00:00</time>
      </trkpt>
      <trkpt lat="46.667775000" lon="12.081758000">
        <ele>2442.4</ele>
        <time>1970-01-01T01:00:00</time>
      </trkpt>
      <trkpt lat="46.667913000" lon="12.081788000">
        <ele>2447.2</ele>
        <time>1970-01-01T01:00:00</time>
      </trkpt>
      <trkpt lat="46.667873000" lon="12.081622000">
        <ele>2453.9</ele>
        <time>1970-01-01T01:00:00</time>
      </trkpt>
      <trkpt lat="46.668046000" lon="12.081593000">
        <ele>2461.6</ele>
        <time>1970-01-01T01:00:00</time>
      </trkpt>
      <trkpt lat="46.668150000" lon="12.081363000">
        <ele>2473.1</ele>
        <time>1970-01-01T01:00:00</time>
      </trkpt>
      <trkpt lat="46.668208000" lon="12.081389000">
        <ele>2473.6</ele>
        <time>1970-01-01T01:00:00</time>
      </trkpt>
      <trkpt lat="46.668176000" lon="12.081274000">
        <ele>2478.9</ele>
        <time>1970-01-01T01:00:00</time>
      </trkpt>
      <trkpt lat="46.668452000" lon="12.081243000">
        <ele>2491.4</ele>
        <time>1970-01-01T01:00:00</time>
      </trkpt>
      <trkpt lat="46.668290000" lon="12.080968000">
        <ele>2502.9</ele>
        <time>1970-01-01T01:00:00</time>
      </trkpt>
      <trkpt lat="46.668497000" lon="12.080904000">
        <ele>2511.1</ele>
        <time>1970-01-01T01:00:00</time>
      </trkpt>
      <trkpt lat="46.668453000" lon="12.080824000">
        <ele>2513.0</ele>
        <time>1970-01-01T01:00:00</time>
      </trkpt>
      <trkpt lat="46.668582000" lon="12.080778000">
        <ele>2521.2</ele>
        <time>1970-01-01T01:00:00</time>
      </trkpt>
      <trkpt lat="46.668467000" lon="12.080513000">
        <ele>2527.0</ele>
        <time>1970-01-01T01:00:00</time>
      </trkpt>
      <trkpt lat="46.668581000" lon="12.080538000">
        <ele>2530.8</ele>
        <time>1970-01-01T01:00:00</time>
      </trkpt>
      <trkpt lat="46.668558000" lon="12.080421000">
        <ele>2535.1</ele>
        <time>1970-01-01T01:00:00</time>
      </trkpt>
      <trkpt lat="46.668644000" lon="12.080257000">
        <ele>2546.2</ele>
        <time>1970-01-01T01:00:00</time>
      </trkpt>
      <trkpt lat="46.668960000" lon="12.079958000">
        <ele>2571.2</ele>
        <time>1970-01-01T01:00:00</time>
      </trkpt>
      <trkpt lat="46.669260000" lon="12.079573000">
        <ele>2587.0</ele>
        <time>1970-01-01T01:00:00</time>
      </trkpt>
      <trkpt lat="46.669348000" lon="12.079595000">
        <ele>2592.8</ele>
        <time>1970-01-01T01:00:00</time>
      </trkpt>
      <trkpt lat="46.669437000" lon="12.079469000">
        <ele>2599.5</ele>
        <time>1970-01-01T01:00:00</time>
      </trkpt>
      <trkpt lat="46.669498000" lon="12.079556000">
        <ele>2602.9</ele>
        <time>1970-01-01T01:00:00</time>
      </trkpt>
      <trkpt lat="46.669748000" lon="12.079188000">
        <ele>2616.4</ele>
        <time>1970-01-01T01:00:00</time>
      </trkpt>
      <trkpt lat="46.669797000" lon="12.079243000">
        <ele>2618.8</ele>
        <time>1970-01-01T01:00:00</time>
      </trkpt>
      <trkpt lat="46.669995000" lon="12.078942000">
        <ele>2627.4</ele>
        <time>1970-01-01T01:00:00</time>
      </trkpt>
      <trkpt lat="46.670022000" lon="12.078983000">
        <ele>2630.8</ele>
        <time>1970-01-01T01:00:00</time>
      </trkpt>
      <trkpt lat="46.669955000" lon="12.079220000">
        <ele>2628.4</ele>
        <time>1970-01-01T01:00:00</time>
      </trkpt>
      <trkpt lat="46.670024000" lon="12.079402000">
        <ele>2632.2</ele>
        <time>1970-01-01T01:00:00</time>
      </trkpt>
      <trkpt lat="46.670172000" lon="12.079279000">
        <ele>2640.4</ele>
        <time>1970-01-01T01:00:00</time>
      </trkpt>
      <trkpt lat="46.670307000" lon="12.079426000">
        <ele>2647.6</ele>
        <time>1970-01-01T01:00:00</time>
      </trkpt>
      <trkpt lat="46.670388000" lon="12.079212000">
        <ele>2651.0</ele>
        <time>1970-01-01T01:00:00</time>
      </trkpt>
      <trkpt lat="46.670761000" lon="12.078976000">
        <ele>2667.8</ele>
        <time>1970-01-01T01:00:00</time>
      </trkpt>
      <trkpt lat="46.671163000" lon="12.078431000">
        <ele>2686.5</ele>
        <time>1970-01-01T01:00:00</time>
      </trkpt>
      <trkpt lat="46.671214000" lon="12.078507000">
        <ele>2690.9</ele>
        <time>1970-01-01T01:00:00</time>
      </trkpt>
      <trkpt lat="46.671344000" lon="12.078391000">
        <ele>2696.6</ele>
        <time>1970-01-01T01:00:00</time>
      </trkpt>
      <trkpt lat="46.671558000" lon="12.078346000">
        <ele>2706.2</ele>
        <time>1970-01-01T01:00:00</time>
      </trkpt>
      <trkpt lat="46.671706000" lon="12.078148000">
        <ele>2713.0</ele>
        <time>1970-01-01T01:00:00</time>
      </trkpt>
      <trkpt lat="46.671771000" lon="12.078202000">
        <ele>2715.4</ele>
        <time>1970-01-01T01:00:00</time>
      </trkpt>
      <trkpt lat="46.671989000" lon="12.077542000">
        <ele>2723.6</ele>
        <time>1970-01-01T01:00:00</time>
      </trkpt>
      <trkpt lat="46.672191000" lon="12.077162000">
        <ele>2727.4</ele>
        <time>1970-01-01T01:00:00</time>
      </trkpt>
      <trkpt lat="46.672569000" lon="12.076744000">
        <ele>2738.0</ele>
        <time>1970-01-01T01:00:00</time>
      </trkpt>
      <trkpt lat="46.672926000" lon="12.076011000">
        <ele>2747.1</ele>
        <time>1970-01-01T01:00:00</time>
      </trkpt>
      <trkpt lat="46.673519000" lon="12.075368000">
        <ele>2759.1</ele>
        <time>1970-01-01T01:00:00</time>
      </trkpt>
      <trkpt lat="46.673796000" lon="12.074849000">
        <ele>2765.9</ele>
        <time>1970-01-01T01:00:00</time>
      </trkpt>
      <trkpt lat="46.673996000" lon="12.074283000">
        <ele>2776.9</ele>
        <time>1970-01-01T01:00:00</time>
      </trkpt>
      <trkpt lat="46.674291000" lon="12.073791000">
        <ele>2788.4</ele>
        <time>1970-01-01T01:00:00</time>
      </trkpt>
      <trkpt lat="46.674454000" lon="12.073678000">
        <ele>2794.2</ele>
        <time>1970-01-01T01:00:00</time>
      </trkpt>
      <trkpt lat="46.674990000" lon="12.072566000">
        <ele>2814.9</ele>
        <time>1970-01-01T01:00:00</time>
      </trkpt>
    </trkseg>
  </trk>
</gpx>
